Hourly Data Report for October 21, 2014

All times are specified in Local Standard Time (LST). Add 1 hour to adjust for Daylight Saving Time where and when it is observed.

POND INLET A
NUNAVUT

72°41'22.000" N
77°58'08.000" W
61.60 m
2403206
71095
YIO

Download Data

Hourly Data (October 2014)
Hourly Data Report for October 21, 2014
Temp Definition
°C
Dew Point Temp Definition
°C
Rel Hum Definition
%
Wind Dir Definition
10's deg

Wind Spd Definition
km/h
Visibility Definition
km
Stn Press Definition
kPa
Hmdx Definition


Wind Chill Definition


Weather Definition


TIME
00:00 Legend Double Dagger -8.4 -9.7 91 24 5 16.1 100.10   -11 LegendNANA
01:00 Legend Double Dagger -9.2 -10.8 88 16 13 16.1 100.11   -15 LegendNANA
02:00 Legend Double Dagger -7.8 -10.0 84 18 5 16.1 100.10   -10 LegendNANA
03:00 Legend Double Dagger -8.6 -10.7 85 19 13 16.1 100.08   -15 LegendNANA
04:00 Legend Double Dagger -8.7 -10.5 87 16 11 16.1 100.07   -14 LegendNANA
05:00 Legend Double Dagger -8.2 -10.0 87 16 15 16.1 100.06   -15 Snow
06:00 Legend Double Dagger -7.9 -9.9 86 15 15 16.1 100.03   -14 LegendNANA
07:00 Legend Double Dagger -8.3 -10.1 87 14 13 16.1 99.98   -14 Snow
08:00 Legend Double Dagger -8.6 -10.1 89 18 9 16.1 99.94   -13 LegendNANA
09:00 Legend Double Dagger -8.2 -9.7 89 16 11 16.1 99.92   -13 LegendNANA
10:00 Legend Double Dagger -7.2 -9.2 86 21 9 16.1 99.88   -12 LegendNANA
11:00 Legend Double Dagger -8.2 -10.1 86 19 11 16.1 99.84   -13 LegendNANA
12:00 Legend Double Dagger -7.6 -9.3 88 16 11 16.1 99.80   -13 LegendNANA
13:00 Legend Double Dagger -7.4 -9.4 86 16 11 16.1 99.77   -12 LegendNANA
14:00 Legend Double Dagger -7.5 -9.0 89 16 11 16.1 99.73   -13 LegendNANA
15:00 Legend Double Dagger -7.4 -8.9 89 17 8 14.5 99.70   -11 Snow
16:00 Legend Double Dagger -7.2 -8.5 91 15 11 14.5 99.65   -12 Snow
17:00 Legend Double Dagger -7.3 -8.7 90 15 11 8.1 99.61   -12 Snow
18:00 Legend Double Dagger -7.6 -9.0 90 14 15 6.4 99.59   -14 Snow
19:00 Legend Double Dagger -7.5 -8.7 91 15 17 6.4 99.56   -14 Snow
20:00 Legend Double Dagger -6.8 -8.3 89 17 21 6.4 99.50   -14 Snow
21:00 Legend Double Dagger -7.0 -8.5 89 18 24 16.1 99.46   -15 Snow
22:00 Legend Double Dagger -6.9 -8.9 86 20 28 16.1 99.41   -15 Snow
23:00 Legend Double Dagger -6.6 -9.5 80 24 28 16.1 99.41   -15 LegendNANA

Notes on Data Quality.

Legend

  • E = Estimated
  • M = Missing
  • NA = Not Available
  • ‡ = Partner data that is not subject to review by the National Climate Archives
Date modified: